Mosinee, WI

1:45 PM CST on February 24, 2017 (GMT -0600)
Central Wisconsin

Weather History for KCWA - December, 2013

Change the Weather History Date:

Sunday, December 22, 2013

  Actual Average Record
Temperature  
Mean Temperature 21 °F -  
Max Temperature 23 °F 22 °F 39 °F (2003)
Min Temperature 19 °F 6 °F -13 °F (1999)
Degree Days  
Heating Degree Days 44    
Moisture  
Dew Point 19 °F    
Average Humidity 92    
Maximum Humidity 100    
Minimum Humidity 80    
Precipitation  
Precipitation 0.00 in - - ()
Sea Level Pressure  
Sea Level Pressure 29.91 in    
Wind  
Wind Speed 7 mph (NNE)    
Max Wind Speed 12 mph    
Max Gust Speed -    
Visibility 6 miles    
Events Snow    
Averages and records for this station are not official NWS values.
T = Trace of Precipitation, MM = Missing Value Source: NWS Daily Summary

Daily Weather History Graph

Daily Weather History Graph

Search for Another Location

Airport or City:

Trip Planner

Search our weather history database for the weather conditions in past years. The results will help you decide how hot, cold, wet, or windy it might be!

Date:

Astronomy

Dec. 22, 2013 Rise Set
Actual Time 7:33 AM CST 4:21 PM CST
Civil Twilight 6:59 AM CST 4:55 PM CST
Nautical Twilight 6:22 AM CST 5:32 PM CST
Astronomical Twilight 5:47 AM CST 6:07 PM CST
Moon 9:46 PM CST (12/22) 10:18 AM CST (12/22)
Length of Visible Light 9h 55m
Length of Day
8h 47m
Waning Gibbous, 76% of the Moon is Illuminated
Dec 22
Waning Gibbous
Dec 25
Last Quarter
Jan 1
New
Jan 7
First Quarter
Jan 15
Full

Hourly Weather History & Observations

Time (CST) Temp. Windchill Dew Point Humidity Pressure Visibility Wind Dir Wind Speed Gust Speed Precip Events Conditions
12:15 AM 23.0 °F 13.9 °F 19.4 °F 86% 29.84 in 10.0 mi NNE 8.1 mph - N/A   Overcast
12:35 AM 23.0 °F 13.9 °F 19.4 °F 86% 29.84 in 10.0 mi NNE 8.1 mph - N/A   Overcast
12:55 AM 23.0 °F 13.9 °F 17.6 °F 80% 29.83 in 10.0 mi NNE 8.1 mph - N/A   Overcast
1:15 AM 23.0 °F 12.4 °F 17.6 °F 80% 29.81 in 10.0 mi NNE 10.4 mph - N/A   Overcast
1:35 AM 23.0 °F 12.4 °F 17.6 °F 80% 29.80 in 10.0 mi NNE 10.4 mph - N/A   Overcast
1:55 AM 21.2 °F 11.7 °F 17.6 °F 86% 29.80 in 10.0 mi NNE 8.1 mph - N/A   Overcast
2:15 AM 21.2 °F 11.7 °F 17.6 °F 86% 29.82 in 10.0 mi NNE 8.1 mph - N/A   Overcast
2:35 AM 21.2 °F 12.6 °F 17.6 °F 86% 29.82 in 10.0 mi NNE 6.9 mph - N/A   Mostly Cloudy
2:55 AM 21.2 °F 11.7 °F 17.6 °F 86% 29.82 in 10.0 mi North 8.1 mph - N/A   Mostly Cloudy
3:15 AM 21.2 °F 9.5 °F 17.6 °F 86% 29.82 in 10.0 mi North 11.5 mph - N/A   Mostly Cloudy
3:35 AM 21.2 °F 10.9 °F 17.6 °F 86% 29.80 in 10.0 mi North 9.2 mph - N/A   Clear
3:55 AM 21.2 °F 10.1 °F 17.6 °F 86% 29.80 in 10.0 mi North 10.4 mph - N/A   Mostly Cloudy
4:15 AM 21.2 °F 10.1 °F 17.6 °F 86% 29.81 in 10.0 mi North 10.4 mph - N/A   Overcast
4:35 AM 21.2 °F 10.1 °F 17.6 °F 86% 29.80 in 10.0 mi North 10.4 mph - N/A   Overcast
5:50 AM 19.4 °F 7.2 °F 17.6 °F 93% 29.81 in 1.0 mi North 11.5 mph - N/A Snow Light Snow
6:45 AM 19.4 °F 7.9 °F 19.4 °F 100% 29.82 in 1.0 mi North 10.4 mph - N/A Snow Light Snow
7:45 AM 19.4 °F 9.5 °F 19.4 °F 100% 29.84 in 1.0 mi NNE 8.1 mph - N/A Snow Light Snow
8:28 AM 19.4 °F 10.4 °F 19.4 °F 100% 29.85 in 0.8 mi North 6.9 mph - N/A Snow Light Snow
8:45 AM 19.4 °F 9.5 °F 19.4 °F 100% 29.85 in 1.0 mi North 8.1 mph - N/A Snow Light Snow
9:45 AM 19.4 °F 9.5 °F 17.6 °F 93% 29.88 in 1.0 mi NNE 8.1 mph - N/A Snow Light Snow
10:50 AM 19.4 °F 9.5 °F 17.6 °F 93% 29.89 in 1.5 mi NNE 8.1 mph - N/A Snow Light Snow
11:50 AM 21.2 °F 10.1 °F 17.6 °F 86% 29.89 in 5.0 mi NE 10.4 mph - N/A Snow Light Snow
12:50 PM 21.2 °F 16.4 °F 19.4 °F 93% 29.88 in 7.0 mi NNE 3.5 mph - N/A Snow Light Snow
1:45 PM 21.2 °F 13.6 °F 19.4 °F 93% 29.89 in 7.0 mi NNE 5.8 mph - N/A Snow Light Snow
2:15 PM 23.0 °F 17.0 °F 19.4 °F 86% 29.90 in 1.5 mi North 4.6 mph - N/A Snow Light Snow
2:45 PM 23.0 °F - 19.4 °F 86% 29.91 in 1.2 mi Calm Calm - N/A Snow Light Snow
3:20 PM 23.0 °F - 21.2 °F 93% 29.93 in 0.8 mi Calm Calm - N/A Snow Light Snow
3:50 PM 23.0 °F - 21.2 °F 93% 29.96 in 1.2 mi Calm Calm - N/A Snow Light Snow
4:15 PM 21.2 °F 16.4 °F 21.2 °F 100% 29.97 in 0.5 mi NW 3.5 mph - N/A Snow Snow
4:55 PM 21.2 °F 12.6 °F 21.2 °F 100% - 2.0 mi NNE 6.9 mph - N/A Snow Light Snow
5:45 PM 21.2 °F 14.9 °F 21.2 °F 100% - 3.0 mi NNE 4.6 mph - N/A Snow Light Snow
6:50 PM 21.2 °F 13.6 °F 21.2 °F 100% 30.00 in 4.0 mi North 5.8 mph - N/A Snow Light Snow
7:50 PM 19.4 °F 12.8 °F 19.4 °F 100% 30.02 in 5.0 mi NNE 4.6 mph - N/A Snow Light Snow
8:45 PM 19.4 °F 12.8 °F 19.4 °F 100% 30.03 in 4.0 mi North 4.6 mph - N/A Snow Light Snow
9:15 PM 21.2 °F 13.6 °F 19.4 °F 93% 30.03 in 7.0 mi North 5.8 mph - N/A Snow Light Snow
9:35 PM 21.2 °F 13.6 °F 19.4 °F 93% 30.04 in 10.0 mi NNE 5.8 mph - N/A   Clear
9:45 PM 19.4 °F 12.8 °F 17.6 °F 93% 30.04 in 10.0 mi NNE 4.6 mph - N/A   Mostly Cloudy
9:55 PM 19.4 °F 12.8 °F 17.6 °F 93% 30.04 in 10.0 mi NNE 4.6 mph - N/A   Clear
10:15 PM 19.4 °F 14.3 °F 17.6 °F 93% 30.04 in 10.0 mi NNE 3.5 mph - N/A   Clear
10:35 PM 19.4 °F 14.3 °F 17.6 °F 93% 30.06 in 10.0 mi North 3.5 mph - N/A   Mostly Cloudy
10:55 PM 19.4 °F 14.3 °F 19.4 °F 100% 30.07 in 10.0 mi North 3.5 mph - N/A   Scattered Clouds
11:15 PM 19.4 °F 12.8 °F 19.4 °F 100% 30.07 in 10.0 mi North 4.6 mph - N/A   Clear
11:35 PM 19.4 °F 12.8 °F 19.4 °F 100% 30.08 in 10.0 mi NNE 4.6 mph - N/A   Clear
11:55 PM 19.4 °F 11.5 °F 19.4 °F 100% 30.08 in 7.0 mi NNE 5.8 mph - N/A Snow Light Snow